Theta_e
316 318 318 323 325 326 326 326 324 323 322 322 321 322 322 323 323 322 320 319 319 320 320 320 321 321 322 320 319 324 331 329 325 324 321 320 317 316 311 313 314 312 312 313 314 313 314
314 318 318 319 323 325 325 325 324 322 321 321 320 320 320 321 321 321 320 319 318 318 318 320 321 320 322 311 327 326 326 325 324 323 321 321 318 319 314 313 312 314 313 314 315 314 313
316 314 318 318 319 323 323 322 323 322 321 320 320 320 319 320 320 320 319 318 317 317 318 320 321 323 318 314 326 328 327 324 325 323 318 321 320 315 316 313 317 315 309 311 312 312 312
314 314 314 318 318 319 322 322 322 322 321 320 320 319 318 319 319 319 318 317 316 317 319 320 322 324 314 325 328 325 328 324 325 324 321 321 321 316 314 316 314 310 310 304 310 311 313
314 314 314 316 317 317 320 321 321 322 321 320 320 319 318 317 317 317 317 316 316 318 319 320 321 323 313 326 321 323 326 322 323 323 323 322 319 314 314 309 306 308 302 305 307 313 311
314 314 314 315 315 317 318 321 320 320 320 319 319 318 317 317 317 317 315 316 319 317 319 325 321 312 317 314 320 323 326 325 319 319 317 317 316 312 311 307 299 303 304 306 306 310 311
313 313 313 314 314 316 318 321 320 319 319 319 319 318 317 317 318 318 317 320 314 316 315 311 312 310 316 320 325 320 323 320 318 314 308 313 308 306 309 311 310 308 306 305 309 312 309
312 312 312 312 313 314 317 319 320 319 319 318 318 317 317 318 319 318 319 313 315 319 309 316 315 314 317 319 312 316 321 313 312 306 310 309 306 312 313 312 310 309 306 305 308 311 310
311 311 311 312 312 312 314 318 319 318 318 318 317 317 317 317 317 318 317 315 320 323 307 307 310 310 312 314 310 311 315 314 310 306 306 304 310 313 311 309 308 307 305 305 305 309 310
310 310 310 311 311 312 312 313 317 319 317 316 316 316 315 315 314 318 315 320 322 326 300 301 306 309 311 311 307 314 314 312 309 304 305 308 313 310 308 306 309 304 310 308 306 304 299
309 309 309 310 310 310 310 310 315 319 317 316 315 315 314 316 321 313 317 323 325 322 288 304 307 316 313 308 310 310 315 311 305 307 308 306 308 308 306 307 310 305 310 308 307 304 303
308 308 308 309 309 309 309 309 310 317 317 316 315 315 314 316 319 322 323 324 324 302 288 301 309 307 308 308 308 312 310 313 313 308 308 307 314 310 309 311 310 311 307 306 305 302 295
305 305 306 307 308 307 309 308 310 316 316 315 314 314 316 321 313 327 330 320 297 290 301 299 303 305 306 305 306 307 306 306 301 297 299 305 306 310 310 306 310 307 303 296 294 295 294
305 304 304 306 306 306 308 308 309 315 315 314 313 313 317 322 323 329 324 306 289 295 297 304 303 304 302 305 304 303 303 301 305 304 301 299 298 306 310 306 305 305 304 297 290 292 295
304 305 304 304 305 305 306 307 309 315 314 314 313 317 318 321 325 326 312 295 294 296 301 300 302 300 300 304 304 301 301 301 305 305 300 299 299 309 310 309 308 303 301 307 299 300 296
304 304 304 302 304 305 305 306 311 315 314 313 314 313 314 323 327 319 305 296 298 302 303 303 296 300 298 300 301 301 300 305 304 308 309 304 297 306 308 309 308 305 307 299 300 291 289
304 304 303 302 302 303 303 304 313 315 313 314 313 305 316 324 323 310 296 298 301 305 304 301 299 298 300 300 302 301 301 305 307 307 309 307 303 301 306 303 302 302 301 302 302 299 292
303 303 302 301 301 302 302 304 314 314 313 314 310 299 318 320 302 304 298 301 303 303 306 303 303 302 301 301 301 302 301 304 309 309 304 307 305 298 300 307 309 306 303 303 297 296 299
303 303 301 300 301 302 302 304 313 313 313 314 305 306 319 316 295 298 302 301 303 302 303 303 301 303 304 301 298 302 304 309 311 309 306 307 302 295 296 301 304 302 304 304 304 302 296
303 303 301 300 300 301 302 305 312 312 313 315 305 295 305 308 308 301 299 299 299 305 304 305 302 303 301 300 303 301 303 308 312 309 304 308 304 298 293 296 301 299 302 304 303 297 298
303 302 300 299 300 300 302 305 313 312 314 312 306 301 304 295 300 303 303 300 299 299 304 306 304 303 300 297 299 300 303 305 308 304 308 308 299 301 300 299 300 300 300 301 300 301 297
302 302 300 299 300 299 302 305 312 312 314 309 303 302 307 303 303 302 301 301 299 301 302 300 302 304 303 299 300 296 301 302 304 306 305 307 298 300 297 299 300 298 301 302 302 302 302
302 302 301 299 299 299 303 309 312 312 313 308 312 313 308 301 300 299 300 302 301 304 304 305 304 303 302 304 305 306 309 309 309 305 305 303 300 298 292 298 299 294 300 302 303 304 303
301 302 302 300 299 299 303 311 311 312 314 312 312 312 303 299 301 300 302 303 303 303 303 305 306 304 308 311 312 309 307 307 308 306 308 303 301 300 293 295 285 299 305 305 304 305 307
300 302 301 301 298 299 302 307 311 311 313 312 312 310 307 299 303 303 303 302 305 305 304 306 309 311 312 307 299 291 296 299 301 305 304 307 302 292 288 289 294 298 302 302 302 302 308
299 301 302 301 299 299 301 303 304 309 310 305 307 314 310 302 299 305 303 305 301 302 304 307 313 319 309 301 293 288 287 293 293 297 304 304 304 294 286 284 285 298 305 309 307 295 307
298 299 302 302 300 298 301 302 303 303 304 304 300 304 306 291 295 299 301 301 307 306 303 306 307 307 309 298 292 289 289 296 290 291 292 295 295 290 290 287 292 302 306 309 295 300 311
298 299 301 302 301 299 300 301 302 302 303 300 298 301 298 290 292 296 296 299 302 306 301 301 302 297 298 296 293 287 289 293 294 298 296 294 291 290 291 288 285 305 305 299 305 311 311
298 298 300 302 302 301 300 301 302 302 303 303 295 301 299 292 289 297 297 298 297 295 294 291 293 291 289 295 292 292 288 293 294 289 301 292 297 295 296 295 305 309 309 312 312 308 309
Wind_Speed
18 17 18 18 19 18 18 16 14 13 12 11 11 10 10 10 9 11 9 12 12 12 15 16 19 17 15 9 7 11 10 7 7 9 13 12 12 13 15 14 13 12 13 18 9 15 8
16 17 16 18 20 20 20 17 16 14 13 12 11 10 9 11 10 10 11 12 12 12 13 16 17 15 8 13 9 13 9 10 10 11 13 11 11 13 12 17 17 14 12 13 16 12 15
15 16 16 17 17 22 21 18 17 15 14 13 12 11 9 10 10 9 10 13 13 14 13 16 15 6 11 17 4 12 9 9 11 9 10 7 8 12 15 15 14 16 18 15 18 17 18
17 15 18 18 20 20 22 19 19 18 16 14 13 12 10 10 9 9 11 12 13 17 16 12 10 7 9 11 6 10 11 11 6 7 6 9 8 12 13 15 17 15 16 17 18 23 21
16 14 17 18 19 17 23 21 19 19 17 15 14 12 11 10 8 8 12 13 17 18 10 12 6 9 10 3 8 12 10 12 12 8 7 4 8 12 13 14 13 14 15 18 20 17 8
19 18 16 19 21 19 20 23 21 19 18 16 15 13 11 10 7 7 11 15 14 12 10 10 10 10 15 9 7 5 13 9 10 8 11 12 10 13 11 11 14 16 13 15 13 9 12
21 20 18 18 19 22 21 25 22 20 19 18 17 14 11 10 6 4 9 11 7 8 9 11 9 8 1 5 2 6 8 7 12 11 14 13 14 14 14 15 18 18 17 17 18 13 6
21 20 20 21 20 21 21 19 24 22 21 19 17 15 12 8 6 2 4 7 6 6 10 16 22 21 20 3 6 13 9 9 13 15 15 14 16 18 15 17 15 15 15 16 17 16 15
22 20 22 22 22 21 21 23 24 23 24 21 18 16 13 9 5 3 11 16 12 10 8 15 21 21 18 17 20 18 16 15 15 15 15 17 17 2 8 13 15 14 15 16 17 16 11
24 21 21 22 22 21 21 22 20 25 25 23 21 18 15 13 2 9 15 16 15 4 7 12 10 17 17 16 11 20 19 16 15 19 18 16 15 17 8 11 11 14 15 16 15 13 12
20 19 22 22 23 20 16 20 24 28 26 24 23 22 20 20 4 14 11 13 7 2 7 5 13 4 8 15 3 11 22 17 19 16 10 13 10 9 11 13 12 13 8 11 11 13 14
22 21 20 21 23 20 21 18 24 29 28 25 25 24 22 12 5 9 6 8 5 6 12 8 9 10 10 17 12 3 11 11 11 17 18 19 12 6 13 11 9 10 8 12 12 11 11
21 21 22 22 20 22 22 21 23 31 29 27 26 26 22 13 13 7 6 7 7 10 9 9 10 12 17 14 15 11 16 16 12 9 14 18 21 15 10 8 8 10 10 8 8 9 12
20 23 23 25 25 21 22 24 25 30 31 29 26 25 20 11 11 8 6 8 12 20 28 7 15 14 16 13 13 15 14 17 21 19 9 12 15 24 16 15 12 16 13 8 11 12 14
23 23 23 24 23 23 23 25 29 33 32 30 27 12 13 13 13 10 10 15 20 21 21 24 10 12 16 15 9 15 18 16 18 21 8 5 14 11 14 11 13 11 13 13 15 13 13
25 24 24 25 25 24 25 29 32 35 34 34 13 14 16 19 11 9 12 24 24 25 23 17 25 16 17 18 15 15 14 12 18 18 15 5 10 9 11 9 12 13 12 9 6 10 16
26 24 25 25 26 25 26 31 36 36 36 39 15 12 14 19 9 9 18 32 30 26 23 24 21 20 19 15 19 15 6 11 18 15 15 10 10 12 13 9 13 12 13 13 14 11 14
26 25 24 25 25 26 27 32 38 38 41 34 17 14 19 18 14 15 25 32 27 33 25 18 12 18 18 17 16 18 18 10 11 15 13 12 5 11 20 17 16 18 17 17 13 13 14
25 25 24 26 25 27 26 36 38 42 43 16 20 13 20 16 18 20 25 31 29 30 26 23 20 11 11 13 14 13 18 11 5 9 3 4 5 9 15 14 15 20 17 15 17 16 19
24 24 22 24 26 23 32 28 34 41 43 15 11 11 10 16 21 28 28 30 30 30 27 23 19 16 14 16 14 10 9 1 3 2 7 5 7 10 12 12 12 17 19 18 19 16 17
23 24 20 21 25 24 32 30 42 44 43 13 11 11 11 24 30 34 26 20 27 32 31 23 22 23 21 17 18 16 10 6 2 3 4 0 11 13 19 21 21 25 26 24 26 25 25
19 21 17 21 20 25 34 33 41 48 44 14 10 15 15 14 22 26 23 31 34 31 24 32 24 24 20 22 18 13 8 9 5 8 5 6 12 12 24 21 22 31 29 25 28 31 34
18 17 18 19 16 28 33 34 45 47 36 9 12 10 13 11 24 20 30 38 36 25 25 25 27 18 22 20 9 7 4 3 6 12 13 12 11 10 27 14 20 30 14 27 33 29 24
17 16 16 15 11 26 28 42 46 46 44 9 11 8 9 13 18 31 34 29 26 31 22 26 20 27 17 8 4 3 4 7 13 14 12 14 15 7 16 1 16 22 15 19 22 24 22
18 16 14 11 6 20 17 6 44 43 45 14 4 5 7 11 20 21 28 30 25 23 22 24 20 19 8 6 4 4 3 8 21 21 21 14 9 2 6 10 24 36 20 19 18 21 16
17 19 9 11 4 10 8 13 22 20 22 8 1 2 1 11 8 16 18 25 18 21 18 21 12 5 10 5 4 12 12 13 12 10 19 19 14 8 4 6 22 13 12 19 27 26 22
13 13 9 10 8 1 4 9 17 22 18 11 5 2 4 5 3 3 4 10 13 14 14 14 17 12 7 8 11 12 15 11 13 13 7 15 16 23 16 12 21 7 12 14 15 1 10
14 14 12 8 12 11 2 7 13 17 17 8 7 6 4 5 4 6 4 3 3 9 10 3 3 4 4 15 11 6 7 11 11 18 14 13 10 10 12 11 29 10 14 26 18 17 20
9 7 9 3 14 19 12 16 11 13 13 9 6 4 7 8 4 3 4 2 5 3 5 4 2 4 2 7 5 5 5 6 9 10 13 7 8 6 13 12 9 8 8 10 17 17 16
Wind_Direction
308 306 301 281 228 221 224 222 223 214 219 225 228 240 256 264 275 292 299 302 310 315 314 315 313 329 323 261 260 139 139 157 221 234 251 264 264 270 267 273 271 254 267 283 275 280 253
286 292 289 287 276 229 224 221 212 218 213 220 223 232 243 264 273 286 297 299 305 307 306 304 303 326 260 278 95 150 181 180 239 209 246 249 271 297 316 294 289 288 286 278 283 262 259
285 289 282 288 286 257 229 219 212 208 213 217 213 224 229 251 271 280 291 297 301 301 302 300 297 286 275 256 284 157 216 228 234 247 281 286 316 299 297 289 268 282 272 271 258 255 255
279 285 288 282 279 283 233 221 211 211 207 215 214 214 224 239 260 281 288 293 297 296 303 296 294 266 258 293 325 233 209 227 241 259 276 307 311 291 280 285 288 270 266 264 259 243 228
280 274 282 286 280 286 242 221 214 213 207 205 209 207 214 232 248 275 290 290 287 289 282 284 269 228 267 150 237 249 225 225 207 236 253 309 292 279 284 255 268 245 252 255 250 245 189
271 274 269 275 277 275 271 224 213 211 207 199 201 202 210 223 237 272 296 283 274 308 248 242 250 284 235 235 188 229 215 231 253 225 250 239 251 260 244 251 257 260 246 233 250 215 207
267 271 275 276 282 283 263 246 214 210 206 201 197 196 201 212 218 279 319 295 240 207 223 223 195 235 69 169 127 222 205 214 251 243 258 269 257 251 270 247 243 272 293 299 304 316 198
261 264 267 270 267 268 283 264 220 208 204 201 194 184 185 198 196 219 279 252 332 347 291 244 248 253 267 274 252 219 235 214 221 240 249 241 249 255 260 276 277 280 282 276 280 284 286
261 260 266 263 267 269 275 264 243 206 205 195 186 177 174 163 162 208 232 245 291 346 262 261 247 244 233 242 243 242 214 218 245 249 240 249 259 22 295 277 267 261 262 274 282 289 293
263 260 261 260 257 265 263 283 256 211 205 191 179 169 155 133 178 222 230 239 264 329 271 254 224 234 221 228 258 229 240 204 235 241 252 262 266 261 255 263 264 257 253 258 261 278 270
270 268 263 257 257 258 265 269 264 222 199 193 179 166 158 178 297 191 217 214 145 222 269 242 169 74 166 182 339 196 210 196 231 236 236 250 221 248 231 257 262 260 339 298 294 276 275
272 270 271 269 257 262 256 274 266 229 191 192 175 166 162 201 279 236 201 129 152 208 239 190 127 185 174 201 227 126 201 216 233 248 258 243 277 267 234 246 238 257 295 266 263 264 262
275 276 271 266 261 274 253 275 260 232 188 186 174 167 170 179 199 230 123 159 193 219 216 211 167 181 200 194 216 192 192 196 199 200 228 238 241 223 239 235 199 245 254 265 235 226 244
264 266 273 265 260 269 260 279 260 228 186 183 173 161 190 201 212 178 182 204 213 218 231 98 183 179 197 185 216 197 206 217 220 238 259 242 233 208 199 221 213 206 225 255 295 306 310
262 264 266 268 268 268 267 282 248 216 183 172 154 175 187 203 215 176 182 210 216 217 208 236 207 191 204 202 203 197 225 223 221 215 228 253 266 157 183 201 231 268 221 238 274 278 275
257 260 266 267 271 270 273 295 231 203 174 159 168 175 199 187 197 183 201 221 222 224 239 247 224 199 216 206 196 185 200 222 226 235 210 257 283 246 192 190 235 251 283 265 235 261 259
260 258 264 267 273 279 290 310 212 195 172 164 159 176 172 177 163 194 203 221 224 229 219 233 243 235 224 209 199 202 230 229 195 215 231 222 240 257 271 188 240 248 228 247 261 256 274
255 254 258 265 271 279 288 292 203 187 174 169 159 189 156 165 182 203 216 211 237 218 241 245 257 245 223 235 223 211 215 248 185 204 212 215 244 243 250 259 213 246 257 259 242 252 253
250 251 257 270 270 275 281 282 192 177 172 179 168 140 155 172 188 205 215 220 228 236 223 233 216 230 255 260 258 242 220 217 191 204 167 193 240 250 260 259 263 268 255 255 265 273 265
252 249 252 266 272 280 286 278 188 172 171 179 157 148 162 187 213 205 198 214 219 231 232 228 210 233 240 257 251 244 252 215 101 128 46 349 252 238 239 248 274 274 268 261 249 246 264
253 245 250 270 279 287 279 283 192 175 173 164 189 177 178 181 202 208 204 197 212 216 225 226 226 213 221 242 241 244 237 108 64 114 80 247 245 250 265 271 276 279 272 270 268 273 268
260 245 244 268 278 287 286 278 190 174 174 174 178 179 179 184 198 201 204 214 207 214 209 219 229 215 217 228 233 232 245 233 192 162 167 203 263 266 267 267 272 276 268 270 265 265 267
280 258 232 267 299 291 290 205 182 175 172 176 195 176 169 197 187 190 209 213 216 199 221 218 221 230 219 230 238 236 277 290 278 228 214 224 253 249 264 275 292 274 274 251 257 258 262
317 266 247 263 302 300 320 184 176 177 183 172 189 187 175 188 182 205 210 212 216 217 217 217 223 215 216 95 38 254 283 281 256 255 266 258 230 251 267 340 243 258 270 262 260 255 253
327 323 232 245 307 308 348 135 180 180 187 173 156 169 186 197 199 209 206 210 220 237 223 233 217 227 154 147 88 25 344 275 252 244 227 242 237 198 227 229 277 268 282 290 282 272 267
331 331 259 202 196 312 25 39 77 150 170 121 93 356 39 186 214 217 198 202 208 218 228 233 228 159 179 166 120 197 212 228 231 242 230 231 215 202 151 224 249 298 258 239 245 267 261
323 331 324 170 164 154 63 65 72 79 84 107 65 33 98 93 49 7 178 206 203 207 222 220 221 226 149 204 206 212 221 182 227 217 162 204 209 219 224 239 263 256 270 311 263 344 342
322 336 343 186 168 133 152 99 89 73 63 76 85 28 131 97 35 38 50 110 122 201 195 113 134 272 210 213 203 165 225 204 226 219 181 184 182 200 215 222 255 216 241 232 262 289 291
312 324 332 190 170 151 167 146 117 101 79 45 86 58 62 71 106 33 64 43 56 72 106 13 91 62 25 198 158 171 198 175 194 227 229 220 209 187 200 218 251 301 302 300 345 350 337